Stations météo

réclame
Mon MeteoGroup
Eskilstuna, Suède (2449): Température de l'air & dewpoint: 12.12.2017 10:00:00 - 18.12.2017 10:00:00 (CET)Eskilstuna, Suède (2449): Vitesse du vent & gusts: 12.12.2017 10:00:00 - 18.12.2017 10:00:00 (CET)Eskilstuna, Suède (2449): Direction du vent: 12.12.2017 10:00:00 - 18.12.2017 10:00:00 (CET)Eskilstuna, Suède (2449): reduced air pressure: 12.12.2017 10:00:00 - 18.12.2017 10:00:00 (CET)Eskilstuna, Suède (2449): visibility: 12.12.2017 10:00:00 - 18.12.2017 10:00:00 (CET)Eskilstuna, Suède (2449): Quantités de précipitations: 12.12.2017 10:00:00 - 18.12.2017 10:00:00 (CET)
Date & Time tt [°C] td [°C] ff [km/h] ff [knt] fx [km/h] fx [knt] dd ppp [hPa] vv [km] rr [mm]
18.12.2017 10:00:00 - - - - - - - - - -
18.12.2017 09:00:00 -0,1 -1,5 9 5 19 10 SSW 1018,5 43 0,0
18.12.2017 08:00:00 -0,7 -2,0 7 4 24 13 SSW 1017,8 39 0,0
18.12.2017 07:00:00 -0,9 -1,9 10 5 24 13 SSW 1017,3 31 0,0
18.12.2017 06:00:00 -1,0 -2,0 9 5 18 10 SW 1017,4 28 0,0
18.12.2017 05:00:00 -1,1 -2,2 9 5 18 10 SSW 1017,0 32 0,0
18.12.2017 04:00:00 -1,4 -2,4 4 2 22 12 S 1016,8 34 0,0
18.12.2017 03:00:00 -1,9 -2,9 8 4 22 12 SSW 1016,6 41 0,0
18.12.2017 02:00:00 -2,9 -3,7 9 5 17 9 SW 1016,6 33 0,0
18.12.2017 01:00:00 -4,0 -5,3 6 3 17 9 SSW 1016,3 46 0,0
18.12.2017 00:00:00 -3,9 -5,3 8 4 16 9 SSW 1016,3 50 0,0
17.12.2017 23:00:00 -4,0 -5,4 7 4 18 10 SSW 1016,1 50 0,0
17.12.2017 22:00:00 -3,8 -5,2 6 4 18 10 SSW 1016,0 50 0,0
17.12.2017 21:00:00 -2,9 -4,0 8 5 17 9 SW 1015,8 50 0,0
17.12.2017 20:00:00 -2,9 -3,9 8 4 19 10 SSW 1015,7 44 0,0
17.12.2017 19:00:00 -3,1 -3,9 9 5 19 10 SW 1015,5 38 0,0
17.12.2017 18:00:00 -5,1 -5,9 4 2 16 9 WSW 1015,2 28 0,0
17.12.2017 17:00:00 -5,3 -6,7 6 3 17 9 SW 1014,9 50 0,0
17.12.2017 16:00:00 -6,0 -7,4 10 5 17 9 WSW 1014,3 50 0,0
17.12.2017 15:00:00 -5,2 -6,6 8 5 15 8 SW 1014,0 50 0,0
17.12.2017 14:00:00 -4,8 -6,5 6 3 10 6 SW 1013,9 50 0,0
17.12.2017 13:00:00 -5,5 -7,6 7 4 10 5 WSW 1014,0 50 0,0
17.12.2017 12:00:00 -6,2 -8,2 4 2 10 6 WSW 1013,9 50 0,0
17.12.2017 11:00:00 -7,0 -8,8 6 3 10 6 SW 1014,0 50 0,0
17.12.2017 10:00:00 -7,8 -9,4 6 4 10 5 SW 1013,8 50 0,0
17.12.2017 09:00:00 -8,0 -9,3 6 3 8 4 WSW 1013,4 50 0,0
17.12.2017 08:00:00 -7,5 -8,9 6 3 8 4 WSW 1012,7 50 0,0
17.12.2017 07:00:00 -7,6 -8,4 5 3 8 4 WSW 1012,3 50 0,0
17.12.2017 06:00:00 -6,6 -7,5 3 2 10 5 WSW 1011,8 50 0,0
17.12.2017 05:00:00 -7,1 -8,3 3 2 11 6 WNW 1011,5 50 0,0
17.12.2017 04:00:00 -6,9 -8,6 6 3 11 6 NW 1011,0 50 0,0
17.12.2017 03:00:00 -6,1 -7,3 6 3 9 5 NW 1010,6 50 0,0
17.12.2017 02:00:00 -5,5 -6,7 5 3 11 6 NW 1009,7 40 0,0
17.12.2017 01:00:00 -4,2 -5,6 6 3 15 8 NW 1009,0 49 0,0
17.12.2017 00:00:00 -2,4 -4,0 7 4 19 10 NNW 1008,4 50 0,0
16.12.2017 23:00:00 -1,5 -3,5 10 6 21 11 NNW 1007,4 50 0,0
16.12.2017 22:00:00 -0,8 -3,0 9 5 28 15 N 1006,8 50 0,0
16.12.2017 21:00:00 -0,1 -2,6 13 7 28 15 N 1006,3 50 0,0
16.12.2017 20:00:00 0,3 -2,2 10 6 29 16 NNE 1005,3 50 0,0
16.12.2017 19:00:00 0,6 -1,6 13 7 29 16 NNE 1004,4 50 0,0
16.12.2017 18:00:00 0,9 -1,2 13 7 29 16 NNE 1003,7 50 0,0
16.12.2017 17:00:00 1,1 -0,5 13 7 29 16 NNE 1002,7 37 0,0
16.12.2017 16:00:00 1,0 -0,3 12 6 25 14 NNE 1001,8 16 0,0
16.12.2017 15:00:00 1,3 0,0 11 6 24 13 NNE 1000,8 37 0,0
16.12.2017 14:00:00 1,5 0,5 8 4 16 9 NNE 999,8 22 0,2
16.12.2017 13:00:00 1,4 0,7 5 3 11 6 NNE 999,1 10 0,1
16.12.2017 12:00:00 1,3 0,9 3 2 6 4 NNE 998,5 4,3 0,1
16.12.2017 11:00:00 0,5 0,1 0 0 3 2 N 998,0 10 0,1
16.12.2017 10:00:00 0,2 -0,2 0 0 5 3 N 997,4 6 0,1
16.12.2017 09:00:00 0,1 -0,2 2 1 5 3 W 996,8 2,1 1,3
16.12.2017 08:00:00 0,1 -0,3 3 2 6 4 SW 996,2 1,9 0,4
16.12.2017 07:00:00 0,2 -0,2 3 2 7 4 WSW 995,4 2,3 0,3
16.12.2017 06:00:00 0,2 -0,2 3 2 10 5 WSW 994,8 6 0,2
16.12.2017 05:00:00 0,2 -0,4 5 3 11 6 WSW 994,3 4,8 0,0
16.12.2017 04:00:00 0,3 -0,4 8 4 12 7 WSW 993,9 18 0,0
16.12.2017 03:00:00 0,3 -0,3 7 4 16 9 WSW 993,3 11 0,1
16.12.2017 02:00:00 0,4 -0,5 9 5 18 10 WSW 992,9 31 0,0
16.12.2017 01:00:00 0,4 -0,3 10 5 18 10 W 992,5 34 0,1
16.12.2017 00:00:00 0,4 -0,5 12 7 18 10 WSW 992,1 36 0,0
15.12.2017 23:00:00 0,5 -0,5 11 6 19 10 W 991,6 50 0,0
15.12.2017 22:00:00 0,7 -0,2 13 7 19 10 W 991,1 50 0,0
15.12.2017 21:00:00 0,7 -0,2 12 6 18 10 W 990,6 42 0,0
15.12.2017 20:00:00 0,9 0,0 12 6 22 12 W 989,7 50 0,0
15.12.2017 19:00:00 1,0 0,1 11 6 22 12 W 988,9 30 0,0
15.12.2017 18:00:00 1,3 0,1 13 7 21 11 WNW 988,6 50 0,0
15.12.2017 17:00:00 1,3 0,4 13 7 20 11 W 987,9 50 0,0
15.12.2017 16:00:00 1,2 0,5 13 7 19 11 W 987,2 27 0,0
15.12.2017 15:00:00 1,0 0,4 10 5 16 8 WNW 986,5 40 0,0
15.12.2017 14:00:00 0,9 0,5 9 5 15 8 NW 985,8 25 0,0
15.12.2017 13:00:00 1,1 0,5 7 4 15 8 NNW 985,1 27 0,0
15.12.2017 12:00:00 1,1 0,7 8 4 13 7 NNW 984,4 12 0,0
15.12.2017 11:00:00 0,9 0,5 6 4 20 11 NNW 983,9 7 0,5
15.12.2017 10:00:00 - - - - 20 11 - - - -
15.12.2017 09:00:00 0,9 0,5 12 7 19 10 NNW 982,6 8 0,0
15.12.2017 08:00:00 1,0 0,4 11 6 20 11 NNW 982,0 24 0,0
15.12.2017 07:00:00 1,0 0,4 12 7 22 12 N 981,4 8 0,0
15.12.2017 06:00:00 1,0 0,3 12 7 22 12 N 981,0 11 0,0
15.12.2017 05:00:00 1,1 0,2 13 7 21 12 N 980,7 16 0,0
15.12.2017 04:00:00 0,8 0,2 11 6 20 11 N 980,3 13 0,1
15.12.2017 03:00:00 0,9 0,3 12 6 28 15 N 980,2 3,5 0,1
15.12.2017 02:00:00 1,0 0,3 13 7 28 15 N 980,0 5 0,2
15.12.2017 01:00:00 1,4 0,5 13 7 26 14 NNE 979,8 13 0,3
15.12.2017 00:00:00 1,4 0,5 13 7 23 13 NNE 979,9 8 0,0
14.12.2017 23:00:00 1,5 0,6 10 6 21 12 NNE 980,3 12 0,0
14.12.2017 22:00:00 1,7 1,0 11 6 21 12 NE 980,5 11 0,0
14.12.2017 21:00:00 1,6 1,0 11 6 21 12 NE 980,8 11 0,2
14.12.2017 20:00:00 1,6 1,2 9 5 18 10 ENE 981,0 8 0,0
14.12.2017 19:00:00 1,6 1,0 9 5 14 8 ENE 981,3 10 0,0
14.12.2017 18:00:00 1,5 1,1 8 4 14 8 ENE 981,5 6 0,0
14.12.2017 17:00:00 1,3 0,9 8 4 16 8 E 981,8 7 0,2
14.12.2017 16:00:00 1,2 0,6 8 4 16 8 E 982,2 6 0,1
14.12.2017 15:00:00 1,5 0,8 6 4 14 7 E 982,4 9 0,0
14.12.2017 14:00:00 1,5 0,8 6 3 11 6 E 982,5 12 0,0
14.12.2017 13:00:00 1,5 0,8 6 3 15 8 E 982,7 9 0,0
14.12.2017 12:00:00 1,6 0,7 8 4 15 8 E 983,1 12 0,1
14.12.2017 11:00:00 1,7 0,7 6 3 15 8 ESE 983,6 20 0,1
14.12.2017 10:00:00 1,6 0,7 6 3 15 8 ESE 983,9 16 0,1
14.12.2017 09:00:00 1,4 0,5 5 3 17 9 ESE 984,0 10 0,1
14.12.2017 08:00:00 1,2 0,5 4 2 17 9 ESE 984,4 12 0,2
14.12.2017 07:00:00 1,3 0,4 5 3 16 9 SE 984,7 11 0,2
14.12.2017 06:00:00 1,1 0,4 5 3 12 6 ESE 985,2 9 0,2
14.12.2017 05:00:00 0,9 0,3 4 2 13 7 ESE 985,8 7 0,5
14.12.2017 04:00:00 0,9 0,2 4 2 20 11 ESE 986,5 7 0,5
14.12.2017 03:00:00 1,0 0,1 6 3 27 15 SSE 987,4 9 0,5
14.12.2017 02:00:00 0,9 0,2 10 5 27 15 S 988,0 3,7 0,8
14.12.2017 01:00:00 1,0 0,1 10 5 26 14 S 988,5 4,5 0,6
14.12.2017 00:00:00 0,8 0,1 8 4 28 15 S 989,3 4,5 0,8
13.12.2017 23:00:00 1,2 -0,1 8 4 28 15 S 989,7 11 0,0
13.12.2017 22:00:00 1,2 -0,3 8 5 26 14 S 990,4 14 0,0
13.12.2017 21:00:00 0,9 -0,4 9 5 26 14 S 991,2 11 0,0
13.12.2017 20:00:00 0,6 -0,5 8 4 24 13 S 991,9 4,6 0,1
13.12.2017 19:00:00 0,7 -0,6 6 4 23 12 S 992,8 8 0,0
13.12.2017 18:00:00 1,0 -0,7 9 5 26 14 S 993,3 10 2,2
13.12.2017 17:00:00 1,2 -0,5 11 6 29 15 SSW 993,7 11 0,0
13.12.2017 16:00:00 1,5 0,2 12 6 29 15 SSW 994,1 12 0,0
13.12.2017 15:00:00 1,7 0,4 13 7 - - SSW 994,4 10 -
13.12.2017 14:00:00 - - - - - - - - - -
13.12.2017 13:00:00 1,4 0,4 9 5 18 10 SSW 994,8 9 0,2
13.12.2017 12:00:00 0,8 0,1 8 4 18 10 SSW 995,2 11 0,0
13.12.2017 11:00:00 0,1 -0,6 8 4 18 10 SSW 995,7 11 0,0
13.12.2017 10:00:00 -1,5 -2,1 6 3 12 6 S 996,2 8 0,0
13.12.2017 09:00:00 -2,6 -3,1 3 2 11 6 S 996,6 4,4 0,1
13.12.2017 08:00:00 -4,2 -5,2 4 2 11 6 S 996,7 49 0,0
13.12.2017 07:00:00 -6,2 -7,1 0 0 9 5 N 997,1 46 0,0
13.12.2017 06:00:00 -6,7 -7,6 2 1 9 5 S 997,3 12 0,0
13.12.2017 05:00:00 -4,9 -5,3 5 3 8 5 SSW 997,5 50 0,0
13.12.2017 04:00:00 -8,5 -9,8 2 1 21 11 SSW 997,8 1,3 0,0
13.12.2017 03:00:00 -5,6 -6,4 6 4 21 11 WSW 997,7 46 0,0
13.12.2017 02:00:00 -7,1 -8,3 12 6 18 10 WSW 997,3 50 0,0
13.12.2017 01:00:00 -6,7 -8,2 9 5 19 11 WSW 996,9 50 0,0
13.12.2017 00:00:00 -7,4 -8,8 10 5 19 11 WSW 996,6 17 0,0
12.12.2017 23:00:00 -6,7 -8,1 11 6 15 8 WSW 996,0 17 0,0
12.12.2017 22:00:00 -5,3 -6,4 8 4 17 9 SW 995,3 17 0,0
12.12.2017 21:00:00 -5,1 -6,2 10 5 27 15 W 994,6 14 0,0
12.12.2017 20:00:00 -2,9 -4,3 14 7 30 16 WNW 993,9 28 0,0
12.12.2017 19:00:00 -2,2 -3,8 17 9 31 17 NW 993,3 50 0,0
12.12.2017 18:00:00 -1,3 -2,6 18 10 31 17 NW 992,3 50 0,0
12.12.2017 17:00:00 -0,5 -1,5 17 9 29 16 NW 991,1 41 0,0
12.12.2017 16:00:00 -0,4 -1,0 17 9 30 16 NW 990,1 9 0,1
12.12.2017 15:00:00 -0,1 -0,5 16 8 30 16 NNW 989,1 1,9 0,2
12.12.2017 14:00:00 0,3 -0,1 17 9 29 16 NNW 988,0 3,8 0,6
12.12.2017 13:00:00 0,3 -0,1 14 8 27 15 N 987,5 1,9 0,8
12.12.2017 12:00:00 0,4 0,0 14 8 27 15 N 987,5 1,9 0,3
12.12.2017 11:00:00 0,5 -0,1 15 8 23 13 N 987,6 2,2 0,1
12.12.2017 10:00:00 0,4 -0,2 9 5 21 11 N 987,7 2,3 0,2

tt = Température de l'air
td = dewpoint
ff = Vitesse du vent
fx = gusts
dd = Direction du vent
ppp = reduced air pressure
vv = visibility
rr = Quantités de précipitations

stations d'obs. à proximité